カタログに戻る

THOR ABLESTAR DEB

運用中LEO
NORAD 234·DEBRIS·🇺🇸 United States

打ち上げ Jun 29, 1961 から Cape Canaveral Space Force Station

Loading…

次のパス (今後24時間)

TLE

最新Source: Space-Track

元期: Sep 7, 2026, 21:08 UTC

1 00234U 61015BS  26250.88098243  .00000092  00000-0  10578-3 0  9994
2 00234  66.8770 315.3954 0063346  66.4541 294.3182 14.04145876323044

AllMySatでTHOR ABLESTAR DEBをリアルタイム追跡

Download on the App Store